Warning: Javascript must be enabled to use all the features on this page!


Page Loading - Please Wait...

Click to hideNews Bulletins

Peak Streamflow for the Nation

USGS 07105000 BEAR CREEK NEAR COLORADO SPRINGS, CO

El Paso County, Colorado
Hydrologic Unit Code 11020003
Latitude  38°49'21", Longitude 104°53'17" NAD27
Drainage area 6.89  square miles
Gage datum 6,520 feet above NGVD29
Output formats
Table
Graph
Tab-separated file
peakfq (watstore) format
Reselect output format
Water
Year
Date Gage
Height
(feet)
Stream-
flow
(cfs)
1992 1992-05-28 0.872 10.0
1993 1993-07-11 1.36 13.0
1994 1994-05-09 1.87 28.0
1995 1995-05-19 1.81 46.0
1996 1996-08-29 1.50 14.0
1997 1997-06-10 2.24 162
1998 1998-07-28 1.552 18.0
1999 1999-04-30 2.80 185
2000 1999-10-07 1.32 6.00
2001 2001-08-31 1.36 6.30
2002 2002-09-09 1.09 1.80
2003 2003-06-19 1.19 3.40
2004 2004-07-16 1.51 16.0
2005 2005-06-11 1.172 4.30
2006 2006-07-10 1.302 8.30
2007 2007-07-30 1.352 13.0
2008 2008-05-07 1.112 4.40
2009 2009-07-02 1.192 6.60
2010 2010-08-06 1.402 10.0
2011 2011-09-14 1.352 8.60
2012 2012-07-30 1.41 10.0
2013 2013-09-13 6.705,6 2222
2014 2014-05-23 4.85 23.0
2015 2015-05-10 5.262 60.0
2016 2016-06-30 8.28 11.02
2017 2017-05-26 8.38 8.04
2018 2018-07-23 8.24 4.51
2019 2019-03-13 7.952 1.90
2020 2020-06-01 8.14 3.592
2021 2021-07-31 8.12 15.5
?
  Peak Gage-Height Qualification Codes.
?
  Peak Streamflow Qualification Codes.